| time (UTC) | temp F | wind direction | speed MPH | gust MPH | rain 1hr in | rain 24hr in | rain mn in | humidity % | barometer mb |
| 20260508191524 | 55 | 242 | 6.0 | 13.0 | 0.00 | 0.00 | 0.00 | 44 | 1009.6 |
| 20260508190520 | 55 | 261 | 8.0 | 13.0 | 0.00 | 0.00 | 0.00 | 43 | 1009.5 |
| 20260508185516 | 54 | 250 | 6.0 | 16.0 | 0.00 | 0.00 | 0.00 | 45 | 1009.6 |
| 20260508184532 | 56 | 285 | 7.0 | 15.0 | 0.00 | 0.00 | 0.00 | 44 | 1009.6 |
| 20260508183528 | 54 | 276 | 5.0 | 13.0 | 0.00 | 0.00 | 0.00 | 44 | 1009.7 |
| 20260508182547 | 54 | 283 | 6.0 | 10.0 | 0.00 | 0.00 | 0.00 | 43 | 1009.8 |
| 20260508181519 | 54 | 253 | 3.0 | 8.0 | 0.00 | 0.00 | 0.00 | 43 | 1009.8 |
| 20260508180556 | 53 | 234 | 4.0 | 7.0 | 0.00 | 0.00 | 0.00 | 44 | 1010.0 |
| 20260508175531 | 53 | 285 | 5.0 | 13.0 | 0.00 | 0.00 | 0.00 | 45 | 1010.0 |
| 20260508174527 | 53 | 311 | 6.0 | 13.0 | 0.00 | 0.00 | 0.00 | 44 | 1010.1 |
| 20260508173522 | 53 | 354 | 4.0 | 10.0 | 0.00 | 0.00 | 0.00 | 45 | 1010.1 |
| 20260508172518 | 53 | 310 | 5.0 | 10.0 | 0.00 | 0.00 | 0.00 | 44 | 1010.2 |
| 20260508171535 | 52 | 280 | 7.0 | 14.0 | 0.00 | 0.00 | 0.00 | 45 | 1010.2 |
| 20260508170531 | 53 | 277 | 5.0 | 11.0 | 0.00 | 0.00 | 0.00 | 44 | 1010.1 |
| 20260508165526 | 53 | 325 | 5.0 | 10.0 | 0.00 | 0.00 | 0.00 | 44 | 1010.1 |
| 20260508164523 | 53 | 251 | 2.0 | 4.0 | 0.00 | 0.00 | 0.00 | 44 | 1010.3 |
| 20260508163519 | 52 | 287 | 7.0 | 14.0 | 0.00 | 0.00 | 0.00 | 45 | 1010.6 |
| 20260508162535 | 52 | 305 | 5.0 | 10.0 | 0.00 | 0.00 | 0.00 | 45 | 1010.6 |
| 20260508161531 | 51 | 280 | 5.0 | 9.0 | 0.00 | 0.00 | 0.00 | 46 | 1010.7 |
| 20260508160546 | 51 | 268 | 3.0 | 6.0 | 0.00 | 0.00 | 0.00 | 46 | 1010.6 |
| 20260508155522 | 51 | 267 | 4.0 | 8.0 | 0.00 | 0.00 | 0.00 | 45 | 1010.6 |
| 20260508154519 | 50 | 270 | 5.0 | 9.0 | 0.00 | 0.00 | 0.00 | 45 | 1010.7 |
| 20260508153534 | 51 | 266 | 4.0 | 9.0 | 0.00 | 0.00 | 0.00 | 46 | 1010.6 |
| 20260508152531 | 51 | 277 | 1.0 | 2.0 | 0.00 | 0.00 | 0.00 | 45 | 1010.6 |
| 20260508151547 | 50 | 308 | 4.0 | 7.0 | 0.00 | 0.00 | 0.00 | 47 | 1010.6 |
| 20260508150543 | 51 | 2 | 3.0 | 7.0 | 0.00 | 0.00 | 0.00 | 47 | 1010.5 |
| 20260508145519 | 51 | 243 | 3.0 | 6.0 | 0.00 | 0.00 | 0.00 | 49 | 1010.3 |
| 20260508144555 | 50 | 183 | 2.0 | 7.0 | 0.00 | 0.00 | 0.00 | 47 | 1010.4 |
| 20260508143530 | 50 | 284 | 5.0 | 10.0 | 0.00 | 0.00 | 0.00 | 50 | 1010.4 |
| 20260508142526 | 50 | 263 | 6.0 | 14.0 | 0.00 | 0.00 | 0.00 | 49 | 1010.4 |
| 20260508141542 | 50 | 305 | 4.0 | 11.0 | 0.00 | 0.00 | 0.00 | 50 | 1010.5 |
| 20260508140518 | 50 | 293 | 5.0 | 11.0 | 0.00 | 0.00 | 0.00 | 50 | 1010.8 |
| 20260508135534 | 49 | 282 | 8.0 | 17.0 | 0.00 | 0.00 | 0.00 | 51 | 1010.7 |
| 20260508134530 | 49 | 263 | 5.0 | 13.0 | 0.00 | 0.00 | 0.00 | 54 | 1010.8 |
| 20260508133526 | 49 | 272 | 5.0 | 9.0 | 0.00 | 0.00 | 0.00 | 55 | 1010.9 |
| 20260508132523 | 48 | 270 | 5.0 | 11.0 | 0.00 | 0.00 | 0.00 | 56 | 1010.9 |
| 20260508131518 | 48 | 262 | 5.0 | 10.0 | 0.00 | 0.00 | 0.00 | 57 | 1011.0 |
| 20260508130534 | 48 | 277 | 6.0 | 13.0 | 0.00 | 0.00 | 0.00 | 59 | 1011.0 |
| 20260508125529 | 47 | 297 | 5.0 | 10.0 | 0.00 | 0.00 | 0.00 | 60 | 1011.0 |
| 20260508124545 | 47 | 305 | 5.0 | 8.0 | 0.00 | 0.00 | 0.00 | 61 | 1011.0 |
| 20260508123521 | 46 | 279 | 5.0 | 8.0 | 0.00 | 0.00 | 0.00 | 62 | 1010.9 |
| 20260508122517 | 45 | 254 | 2.0 | 6.0 | 0.00 | 0.00 | 0.00 | 69 | 1010.9 |
| 20260508121533 | 44 | 172 | 3.0 | 7.0 | 0.00 | 0.00 | 0.00 | 72 | 1011.0 |
| 20260508120529 | 44 | 161 | 4.0 | 7.0 | 0.00 | 0.00 | 0.00 | 73 | 1010.9 |
| 20260508115545 | 44 | 169 | 3.0 | 7.0 | 0.00 | 0.00 | 0.00 | 74 | 1011.0 |
| 20260508114521 | 44 | 250 | 2.0 | 4.0 | 0.00 | 0.00 | 0.00 | 73 | 1010.9 |
| 20260508113517 | 43 | 246 | 0.0 | 1.0 | 0.00 | 0.00 | 0.00 | 76 | 1010.8 |
| 20260508112553 | 41 | 216 | 1.0 | 2.0 | 0.00 | 0.00 | 0.00 | 81 | 1010.8 |
| 20260508111550 | 40 | 243 | 1.0 | 2.0 | 0.00 | 0.00 | 0.00 | 92 | 1010.8 |
| 20260508110526 | 39 | 0.0 | 0.0 | 0.00 | 0.00 | 0.00 | 96 | 1010.7 | |
| 20260508105522 | 38 | 0.0 | 0.0 | 0.00 | 0.00 | 0.00 | 97 | 1010.6 | |
| 20260508104518 | 37 | 0.0 | 0.0 | 0.00 | 0.00 | 0.00 | 98 | 1010.6 | |
| 20260508103533 | 36 | 0.0 | 0.0 | 0.00 | 0.00 | 0.00 | 99 | 1010.5 | |
| 20260508102529 | 35 | 0.0 | 0.0 | 0.00 | 0.00 | 0.00 | 99 | 1010.3 | |
| 20260508101525 | 35 | 0.0 | 0.0 | 0.00 | 0.00 | 0.00 | 99 | 1010.2 | |
| 20260508100542 | 34 | 0.0 | 0.0 | 0.00 | 0.00 | 0.00 | 99 | 1010.0 | |
| 20260508095517 | 34 | 0.0 | 0.0 | 0.00 | 0.00 | 0.00 | 99 | 1009.9 | |
| 20260508094533 | 34 | 0.0 | 0.0 | 0.00 | 0.00 | 0.00 | 99 | 1009.9 | |
| 20260508093529 | 34 | 0.0 | 0.0 | 0.00 | 0.00 | 0.00 | 99 | 1009.7 | |
| 20260508092525 | 34 | 0.0 | 0.0 | 0.00 | 0.00 | 0.00 | 99 | 1009.7 | |
| 20260508091521 | 34 | 0.0 | 0.0 | 0.00 | 0.00 | 0.00 | 99 | 1009.7 | |
| 20260508090517 | 34 | 0.0 | 0.0 | 0.00 | 0.00 | 0.00 | 99 | 1009.7 | |
| 20260508085533 | 34 | 0.0 | 0.0 | 0.00 | 0.00 | 0.00 | 99 | 1009.6 | |
| 20260508084529 | 34 | 0.0 | 0.0 | 0.00 | 0.00 | 0.00 | 99 | 1009.8 | |
| 20260508083525 | 33 | 0.0 | 0.0 | 0.00 | 0.00 | 0.00 | 99 | 1009.6 | |
| 20260508082521 | 33 | 0.0 | 0.0 | 0.00 | 0.00 | 0.00 | 99 | 1009.6 | |
| 20260508081518 | 33 | 0.0 | 0.0 | 0.00 | 0.00 | 0.00 | 99 | 1009.5 | |
| 20260508080535 | 33 | 0.0 | 0.0 | 0.00 | 0.00 | 0.00 | 99 | 1009.5 | |
| 20260508075530 | 32 | 0.0 | 0.0 | 0.00 | 0.00 | 0.00 | 99 | 1009.3 | |
| 20260508074546 | 32 | 0.0 | 0.0 | 0.00 | 0.00 | 0.00 | 99 | 1009.4 | |
| 20260508073523 | 32 | 0.0 | 0.0 | 0.00 | 0.00 | 0.00 | 99 | 1009.4 | |
| 20260508072519 | 32 | 0.0 | 0.0 | 0.00 | 0.00 | 0.00 | 99 | 1009.3 | |
| 20260508071535 | 32 | 0.0 | 0.0 | 0.00 | 0.00 | 0.00 | 99 | 1009.3 | |
| 20260508070531 | 31 | 0.0 | 0.0 | 0.00 | 0.00 | 0.00 | 99 | 1009.3 | |
| 20260508065527 | 31 | 0.0 | 0.0 | 0.00 | 0.00 | 0.00 | 99 | 1009.5 | |
| 20260508064522 | 31 | 0.0 | 0.0 | 0.00 | 0.00 | 0.00 | 99 | 1009.6 | |
| 20260508063518 | 31 | 0.0 | 0.0 | 0.00 | 0.00 | 0.00 | 99 | 1009.3 | |
| 20260508062555 | 31 | 0.0 | 0.0 | 0.00 | 0.00 | 0.00 | 99 | 1009.4 | |
| 20260508061531 | 31 | 0.0 | 0.0 | 0.00 | 0.00 | 0.00 | 99 | 1009.5 | |
| 20260508060527 | 32 | 0.0 | 0.0 | 0.00 | 0.00 | 0.00 | 99 | 1009.4 | |
| 20260508055524 | 32 | 0.0 | 0.0 | 0.00 | 0.00 | 0.00 | 99 | 1009.5 | |
| 20260508054520 | 32 | 0.0 | 0.0 | 0.00 | 0.00 | 0.00 | 98 | 1009.6 | |
| 20260508053516 | 32 | 206 | 1.0 | 2.0 | 0.00 | 0.00 | 0.00 | 98 | 1009.6 |
| 20260508052532 | 32 | 0.0 | 0.0 | 0.00 | 0.00 | 0.00 | 98 | 1009.7 | |
| 20260508051609 | 32 | 0.0 | 0.0 | 0.00 | 0.00 | 0.00 | 97 | 1009.6 | |
| 20260508050524 | 32 | 0.0 | 0.0 | 0.00 | 0.00 | 0.00 | 97 | 1009.5 | |
| 20260508045528 | 33 | 0.0 | 0.0 | 0.00 | 0.00 | 0.00 | 97 | 1009.4 | |
| 20260508044524 | 33 | 0.0 | 0.0 | 0.00 | 0.00 | 0.00 | 96 | 1009.6 | |
| 20260508043520 | 33 | 273 | 1.0 | 2.0 | 0.00 | 0.00 | 0.00 | 96 | 1009.5 |
| 20260508042517 | 34 | 208 | 1.0 | 2.0 | 0.00 | 0.00 | 0.00 | 96 | 1009.6 |
| 20260508041533 | 34 | 222 | 2.0 | 3.0 | 0.00 | 0.00 | 0.00 | 96 | 1009.8 |
| 20260508040529 | 34 | 224 | 2.0 | 2.0 | 0.00 | 0.00 | 0.00 | 95 | 1009.7 |
| 20260508035524 | 34 | 227 | 2.0 | 3.0 | 0.00 | 0.00 | 0.00 | 95 | 1009.6 |
| 20260508034521 | 35 | 219 | 3.0 | 3.0 | 0.00 | 0.00 | 0.00 | 94 | 1009.6 |
| 20260508033517 | 35 | 232 | 2.0 | 4.0 | 0.00 | 0.00 | 0.00 | 93 | 1009.7 |
| 20260508032532 | 36 | 217 | 3.0 | 3.0 | 0.00 | 0.00 | 0.00 | 93 | 1009.7 |
| 20260508031528 | 36 | 200 | 3.0 | 3.0 | 0.00 | 0.00 | 0.00 | 92 | 1009.6 |
| 20260508030524 | 36 | 210 | 3.0 | 4.0 | 0.00 | 0.00 | 0.00 | 91 | 1009.5 |
| 20260508025520 | 37 | 214 | 2.0 | 3.0 | 0.00 | 0.00 | 0.00 | 91 | 1009.6 |
| 20260508024516 | 37 | 225 | 3.0 | 4.0 | 0.00 | 0.00 | 0.00 | 90 | 1009.6 |
| 20260508023532 | 38 | 228 | 3.0 | 4.0 | 0.00 | 0.00 | 0.00 | 88 | 1009.6 |
| 20260508022528 | 38 | 214 | 3.0 | 4.0 | 0.00 | 0.00 | 0.00 | 88 | 1009.8 |
| 20260508021542 | 39 | 221 | 3.0 | 4.0 | 0.00 | 0.00 | 0.00 | 86 | 1009.5 |
| 20260508020518 | 39 | 232 | 3.0 | 4.0 | 0.00 | 0.00 | 0.00 | 84 | 1009.5 |
| 20260508015534 | 40 | 229 | 2.0 | 3.0 | 0.00 | 0.00 | 0.00 | 84 | 1009.4 |
| 20260508014530 | 41 | 229 | 2.0 | 3.0 | 0.00 | 0.01 | 0.00 | 81 | 1009.3 |
| 20260508013526 | 41 | 218 | 3.0 | 4.0 | 0.00 | 0.01 | 0.00 | 79 | 1009.2 |
| 20260508012542 | 42 | 219 | 2.0 | 3.0 | 0.00 | 0.02 | 0.00 | 78 | 1009.0 |
| 20260508011518 | 43 | 222 | 2.0 | 3.0 | 0.00 | 0.02 | 0.00 | 73 | 1009.1 |
| 20260508010535 | 44 | 262 | 2.0 | 3.0 | 0.00 | 0.03 | 0.00 | 71 | 1009.0 |
| 20260508005531 | 44 | 265 | 1.0 | 2.0 | 0.00 | 0.03 | 0.00 | 66 | 1008.9 |
| 20260508004527 | 44 | 268 | 0.0 | 2.0 | 0.00 | 0.04 | 0.00 | 65 | 1008.9 |
| 20260508003523 | 47 | 350 | 1.0 | 3.0 | 0.00 | 0.05 | 0.00 | 60 | 1008.5 |
| 20260508002519 | 48 | 328 | 1.0 | 1.0 | 0.00 | 0.05 | 0.00 | 57 | 1008.5 |
| 20260508001535 | 50 | 301 | 1.0 | 2.0 | 0.00 | 0.05 | 0.00 | 53 | 1008.3 |
| 20260508000611 | 51 | 337 | 3.0 | 7.0 | 0.00 | 0.05 | 0.00 | 48 | 1008.2 |
| 20260507235527 | 51 | 319 | 2.0 | 4.0 | 0.00 | 0.06 | 0.00 | 48 | 1008.1 |
| 20260507234522 | 52 | 16 | 2.0 | 4.0 | 0.00 | 0.08 | 0.00 | 47 | 1008.0 |
| 20260507233539 | 52 | 329 | 2.0 | 4.0 | 0.00 | 0.10 | 0.00 | 47 | 1007.9 |
| 20260507232535 | 53 | 347 | 2.0 | 7.0 | 0.00 | 0.11 | 0.00 | 45 | 1007.8 |
| 20260507231532 | 55 | 342 | 3.0 | 7.0 | 0.00 | 0.11 | 0.00 | 44 | 1007.7 |
| 20260507230529 | 55 | 322 | 3.0 | 9.0 | 0.00 | 0.12 | 0.00 | 44 | 1007.7 |
| 20260507225525 | 54 | 279 | 6.0 | 11.0 | 0.00 | 0.12 | 0.00 | 43 | 1007.6 |
| 20260507224521 | 54 | 307 | 4.0 | 7.0 | 0.00 | 0.12 | 0.00 | 42 | 1007.7 |
| 20260507223537 | 55 | 284 | 3.0 | 7.0 | 0.00 | 0.13 | 0.00 | 43 | 1007.7 |
| 20260507222533 | 54 | 297 | 4.0 | 7.0 | 0.00 | 0.14 | 0.00 | 43 | 1007.7 |
| 20260507221529 | 55 | 263 | 3.0 | 7.0 | 0.00 | 0.14 | 0.00 | 43 | 1007.6 |
| 20260507220525 | 55 | 294 | 2.0 | 4.0 | 0.00 | 0.15 | 0.00 | 43 | 1007.7 |
| 20260507215521 | 55 | 323 | 4.0 | 10.0 | 0.00 | 0.15 | 0.00 | 42 | 1007.5 |
| 20260507214517 | 56 | 345 | 4.0 | 10.0 | 0.00 | 0.15 | 0.00 | 42 | 1007.6 |
| 20260507213533 | 57 | 305 | 3.0 | 7.0 | 0.00 | 0.15 | 0.00 | 41 | 1007.4 |
| 20260507212529 | 56 | 307 | 5.0 | 9.0 | 0.00 | 0.16 | 0.00 | 42 | 1007.4 |
| 20260507211525 | 56 | 273 | 6.0 | 16.0 | 0.00 | 0.17 | 0.00 | 43 | 1007.4 |
| 20260507210521 | 56 | 301 | 5.0 | 13.0 | 0.00 | 0.17 | 0.00 | 42 | 1007.4 |
| 20260507205517 | 55 | 259 | 10.0 | 14.0 | 0.00 | 0.18 | 0.00 | 42 | 1007.3 |
| 20260507204533 | 55 | 251 | 8.0 | 15.0 | 0.00 | 0.18 | 0.00 | 42 | 1007.4 |
| 20260507203529 | 55 | 279 | 10.0 | 16.0 | 0.00 | 0.18 | 0.00 | 43 | 1007.2 |
| 20260507202605 | 56 | 276 | 6.0 | 11.0 | 0.00 | 0.18 | 0.00 | 43 | 1007.3 |
| 20260507201521 | 57 | 266 | 7.0 | 16.0 | 0.00 | 0.18 | 0.00 | 43 | 1007.4 |
| 20260507200517 | 55 | 289 | 8.0 | 18.0 | 0.00 | 0.19 | 0.00 | 45 | 1007.4 |
| 20260507195533 | 55 | 290 | 8.0 | 13.0 | 0.00 | 0.19 | 0.00 | 44 | 1007.7 |
| 20260507194550 | 55 | 290 | 5.0 | 10.0 | 0.00 | 0.20 | 0.00 | 45 | 1007.8 |
| 20260507193525 | 55 | 276 | 6.0 | 15.0 | 0.00 | 0.23 | 0.00 | 45 | 1007.7 |
| 20260507192521 | 56 | 277 | 10.0 | 18.0 | 0.00 | 0.24 | 0.00 | 44 | 1007.8 |